�N����,����,�~����,�C��,���x,�C��,����,���ϕ���,�ő�u�ԕ���,�ő厞����,���˗�,�I�_���x,�n�����x,�ő啗���N��,DTYPE
"22/08/28","00:10",0.0,25.3,73.6,1002.6,338.1,1.6,2.8,351.2,0.00,20.3,26.2,"00:03:28",1
"22/08/28","00:20",0.0,25.3,73.9,1002.4,325.4,1.8,3.4,352.4,0.00,20.4,26.2,"00:14:16",1
"22/08/28","00:30",0.0,25.3,74.0,1001.9,349.0,1.7,3.3,323.0,0.00,20.4,26.1,"00:20:40",1
"22/08/28","00:40",0.0,25.1,74.4,1002.2,340.3,1.1,2.9,358.8,0.00,20.3,26.2,"00:32:56",1
"22/08/28","00:50",0.0,24.9,75.3,1002.2,317.3,0.3,1.1,335.1,0.00,20.3,26.1,"00:46:48",1
"22/08/28","01:00",0.0,24.8,76.0,1002.2,327.2,0.7,2.1,339.8,0.00,20.3,26.0,"00:54:40",1
"22/08/28","01:10",0.0,24.8,76.7,1002.4,321.3,1.1,2.0,348.2,0.00,20.5,26.0,"01:00:24",1
"22/08/28","01:20",0.0,24.7,76.0,1002.4,300.5,1.3,2.6,341.1,0.00,20.2,25.9,"01:15:04",1
"22/08/28","01:30",0.0,24.7,74.2,1001.9,304.6,1.3,2.8,328.0,0.00,19.8,25.9,"01:27:12",1
"22/08/28","01:40",0.0,24.9,72.9,1002.4,343.2,1.2,2.7,342.4,0.00,19.7,25.7,"01:32:40",1
"22/08/28","01:50",0.0,24.9,73.8,1002.2,304.7,0.5,1.2,0.3,0.00,19.9,25.7,"01:40:24",1
"22/08/28","02:00",0.0,24.5,75.2,1002.4,282.5,0.2,0.9,261.2,0.00,19.9,25.8,"01:53:44",1
"22/08/28","02:10",0.0,24.4,75.6,1002.4,340.9,1.1,2.4,344.3,0.00,19.9,26.0,"02:05:36",1
"22/08/28","02:20",0.0,24.2,75.2,1002.2,326.1,1.2,2.1,341.1,0.00,19.6,25.8,"02:18:56",1
"22/08/28","02:30",0.0,24.3,74.6,1002.2,323.1,1.0,1.8,328.0,0.00,19.5,25.9,"02:21:12",1
"22/08/28","02:40",0.0,24.2,74.7,1002.9,317.6,0.6,1.7,348.5,0.00,19.5,25.9,"02:33:52",1
"22/08/28","02:50",0.0,24.0,75.3,1002.4,304.6,0.8,1.6,317.7,0.00,19.4,25.7,"02:48:24",1
"22/08/28","03:00",0.0,24.3,75.6,1002.6,306.0,0.6,1.4,324.1,0.00,19.8,25.7,"02:53:04",1
"22/08/28","03:10",0.0,24.0,76.0,1002.9,328.3,0.8,1.3,332.3,0.00,19.5,25.9,"03:03:12",1
"22/08/28","03:20",0.0,24.0,76.7,1002.2,334.8,1.0,1.9,330.7,0.00,19.7,26.0,"03:12:24",1
"22/08/28","03:30",0.0,23.9,77.3,1002.6,314.8,0.7,1.7,320.4,0.00,19.7,25.7,"03:26:48",1
"22/08/28","03:40",0.0,23.7,78.2,1002.9,322.8,0.6,1.4,7.5,0.00,19.7,25.7,"03:37:52",1
"22/08/28","03:50",0.0,23.6,79.2,1002.9,252.1,0.2,0.5,291.0,0.00,19.8,25.7,"03:41:52",1
"22/08/28","04:00",0.0,23.2,80.3,1002.9,335.4,0.8,1.6,342.4,0.00,19.7,25.5,"03:54:00",1
"22/08/28","04:10",0.0,23.4,81.9,1002.9,334.4,1.2,1.9,345.5,0.00,20.2,25.6,"04:07:44",1
"22/08/28","04:20",0.0,22.9,82.7,1003.4,332.8,1.2,2.1,336.0,0.00,19.8,25.7,"04:13:12",1
"22/08/28","04:30",0.0,23.0,83.0,1003.1,320.2,0.7,1.3,334.1,0.00,20.0,25.7,"04:29:36",1
"22/08/28","04:40",0.0,23.1,83.3,1003.4,328.5,1.2,1.8,309.8,0.00,20.2,25.7,"04:37:28",1
"22/08/28","04:50",0.0,22.9,83.7,1003.1,334.2,1.0,1.6,336.8,0.00,20.0,25.5,"04:40:32",1
"22/08/28","05:00",0.0,23.1,84.3,1003.6,343.5,1.0,1.6,341.2,0.00,20.3,25.4,"04:51:12",1
"22/08/28","05:10",0.0,22.9,84.7,1003.6,329.9,1.2,1.6,318.6,0.00,20.2,25.6,"05:00:16",1
"22/08/28","05:20",0.0,22.9,85.1,1004.1,329.0,0.7,1.7,341.0,0.00,20.3,25.5,"05:10:40",1
"22/08/28","05:30",0.0,22.9,85.3,1004.1,203.2,0.3,1.4,322.2,0.00,20.3,25.6,"05:29:04",1
"22/08/28","05:40",0.0,22.7,85.6,1004.1,317.2,0.7,1.2,338.5,0.00,20.2,25.5,"05:30:08",1
"22/08/28","05:50",0.0,22.6,86.0,1003.8,334.5,0.8,1.6,341.5,0.00,20.2,25.4,"05:47:04",1
"22/08/28","06:00",0.0,22.7,86.4,1004.5,315.6,0.7,1.4,337.1,0.00,20.4,25.5,"05:52:32",1
"22/08/28","06:10",0.0,22.7,86.4,1004.3,322.4,1.5,2.7,312.3,0.00,20.4,25.5,"06:06:08",1
"22/08/28","06:20",0.0,23.0,85.7,1004.8,333.3,1.7,3.2,328.3,0.00,20.5,25.4,"06:15:12",1
"22/08/28","06:30",0.0,23.3,84.7,1004.8,319.9,1.7,4.4,321.6,0.00,20.6,25.4,"06:29:12",1
"22/08/28","06:40",0.0,23.8,83.2,1004.8,305.2,1.7,3.6,330.9,0.00,20.8,25.4,"06:31:36",1
"22/08/28","06:50",0.0,24.0,81.9,1005.0,314.0,1.6,3.1,304.0,0.01,20.8,25.5,"06:43:12",1
"22/08/28","07:00",0.0,24.1,80.6,1004.8,319.1,1.6,2.9,314.2,0.01,20.6,25.4,"06:52:08",1
"22/08/28","07:10",0.0,24.2,79.8,1005.0,298.5,1.6,3.3,2.7,0.01,20.5,25.2,"07:01:04",1
"22/08/28","07:20",0.0,24.3,79.6,1005.2,319.9,1.3,2.7,334.2,0.03,20.6,25.3,"07:17:52",1
"22/08/28","07:30",0.0,24.7,79.5,1004.8,325.1,1.2,2.5,336.3,0.09,21.0,25.4,"07:24:32",1
"22/08/28","07:40",0.0,24.9,78.0,1004.8,295.6,1.1,2.5,321.8,0.05,20.8,25.4,"07:38:56",1
"22/08/28","07:50",0.0,25.1,77.5,1004.8,309.1,0.8,1.8,317.4,0.05,20.9,25.1,"07:44:08",1
"22/08/28","08:00",0.0,25.3,76.7,1005.2,284.4,1.0,2.0,344.4,0.08,21.0,25.4,"07:50:02",1
"22/08/28","08:10",0.0,25.4,76.4,1005.0,323.1,1.3,2.9,356.0,0.08,21.0,25.4,"08:04:16",1
"22/08/28","08:20",0.0,25.3,75.9,1005.0,309.4,1.1,2.5,337.1,0.08,20.8,25.3,"08:19:20",1
"22/08/28","08:30",0.0,25.2,75.6,1005.0,327.5,1.8,4.3,351.6,0.09,20.6,25.4,"08:26:00",1
"22/08/28","08:40",0.0,25.5,75.9,1005.2,318.3,1.2,2.6,328.6,0.10,21.0,25.5,"08:32:32",1
"22/08/28","08:50",0.0,25.9,75.5,1005.2,303.9,1.0,2.8,352.0,0.13,21.3,25.3,"08:49:28",1
"22/08/28","09:00",0.0,26.2,74.3,1005.2,302.0,1.1,4.3,357.0,0.13,21.3,25.3,"08:50:08",1
"22/08/28","09:10",0.0,26.1,73.6,1005.2,338.6,2.2,4.9,349.5,0.20,21.1,25.5,"09:04:32",1
"22/08/28","09:20",0.0,26.2,73.0,1005.5,353.9,1.7,5.1,340.7,0.17,21.0,25.3,"09:12:16",1
"22/08/28","09:30",0.0,26.5,73.0,1005.5,348.4,1.6,3.6,348.5,0.18,21.3,25.5,"09:22:16",1
"22/08/28","09:40",0.0,26.1,72.1,1005.7,336.8,2.2,5.8,349.8,0.13,20.7,25.3,"09:30:02",1
"22/08/28","09:50",0.0,25.9,72.3,1005.7,343.4,2.6,4.8,340.3,0.16,20.6,25.4,"09:41:04",1
"22/08/28","10:00",0.0,26.5,70.8,1006.0,328.1,2.1,6.6,318.1,0.27,20.8,25.3,"09:56:56",1
"22/08/28","10:10",0.0,26.0,70.4,1005.7,338.0,3.0,5.7,345.8,0.19,20.2,25.3,"10:03:36",1
"22/08/28","10:20",0.0,26.9,70.6,1006.2,348.3,2.0,4.7,340.9,0.38,21.1,25.5,"10:10:40",1
"22/08/28","10:30",0.0,27.3,67.1,1005.5,353.2,2.2,5.1,4.3,0.39,20.7,25.6,"10:24:48",1
"22/08/28","10:40",0.0,26.7,67.7,1005.5,356.6,2.0,4.7,325.7,0.18,20.3,25.4,"10:30:40",1
"22/08/28","10:50",0.0,26.6,68.8,1005.5,330.9,1.6,4.1,344.0,0.16,20.4,25.5,"10:48:00",1
"22/08/28","11:00",0.0,26.1,68.1,1006.0,340.0,2.0,6.0,351.8,0.16,19.8,25.5,"10:58:56",1
"22/08/28","11:10",0.0,26.4,68.0,1006.0,337.9,1.7,4.0,328.6,0.21,20.1,25.5,"11:00:48",1
"22/08/28","11:20",0.0,26.5,67.2,1006.0,341.0,1.7,4.3,317.7,0.21,20.0,25.6,"11:14:16",1
"22/08/28","11:30",0.0,26.2,67.3,1006.0,341.7,2.3,5.4,334.1,0.21,19.7,25.5,"11:28:08",1
"22/08/28","11:40",0.0,26.3,67.5,1006.0,341.7,2.3,4.5,353.4,0.23,19.8,25.4,"11:37:52",1
"22/08/28","11:50",0.0,26.1,67.0,1006.0,338.6,2.2,6.3,331.4,0.17,19.5,25.5,"11:46:40",1
"22/08/28","12:00",0.0,26.3,67.1,1006.0,354.0,2.0,3.5,342.8,0.15,19.7,25.5,"11:51:52",1
"22/08/28","12:10",0.0,26.6,67.4,1006.2,347.1,1.1,2.9,24.1,0.14,20.1,25.4,"12:01:52",1
"22/08/28","12:20",0.0,26.5,66.7,1006.0,326.5,1.7,4.4,340.5,0.16,19.8,25.6,"12:19:44",1
"22/08/28","12:30",0.0,26.5,66.2,1005.7,346.8,2.0,4.9,25.8,0.20,19.7,25.7,"12:22:56",1
"22/08/28","12:40",0.0,26.5,66.0,1005.7,1.3,1.8,3.5,352.7,0.18,19.7,25.6,"12:32:16",1
"22/08/28","12:50",0.0,26.6,65.9,1006.0,352.8,1.6,3.9,11.1,0.17,19.7,25.7,"12:43:04",1
"22/08/28","13:00",0.0,26.9,65.4,1006.2,3.2,1.5,4.0,355.6,0.28,19.9,25.8,"12:51:52",1
"22/08/28","13:10",0.0,27.7,63.6,1005.5,335.6,1.3,3.4,324.5,0.40,20.2,25.7,"13:00:24",1
"22/08/28","13:20",0.0,28.7,61.6,1005.7,345.7,1.5,3.6,327.6,0.49,20.6,25.8,"13:16:08",1
"22/08/28","13:30",0.0,28.5,60.2,1006.0,353.3,2.3,4.5,331.9,0.43,20.1,25.8,"13:23:28",1
"22/08/28","13:40",0.0,28.0,60.3,1005.5,341.5,2.6,5.6,345.8,0.34,19.6,25.8,"13:33:04",1
"22/08/28","13:50",0.0,28.6,59.8,1005.5,347.8,2.0,6.7,358.8,0.41,20.1,25.6,"13:45:28",1
"22/08/28","14:00",0.0,28.9,57.3,1006.0,346.1,2.6,5.0,316.7,0.53,19.7,25.7,"13:51:20",1
"22/08/28","14:10",0.0,29.2,55.4,1006.0,341.9,2.2,4.0,19.4,0.55,19.4,25.8,"14:09:20",1
"22/08/28","14:20",0.0,29.1,55.0,1006.0,344.5,2.8,5.7,354.4,0.51,19.2,25.6,"14:12:56",1
"22/08/28","14:30",0.0,29.0,57.3,1006.0,345.7,2.6,6.2,325.6,0.45,19.7,25.8,"14:25:36",1
"22/08/28","14:40",0.0,28.8,57.1,1005.7,334.6,2.7,6.0,336.9,0.50,19.5,26.0,"14:30:08",1
"22/08/28","14:50",0.0,28.9,56.4,1006.0,348.8,2.6,5.2,325.9,0.46,19.4,25.9,"14:42:16",1
"22/08/28","15:00",0.0,29.1,54.3,1005.7,339.9,2.1,5.7,1.4,0.43,19.0,26.0,"14:57:12",1
"22/08/28","15:10",0.0,29.0,54.2,1006.2,336.3,2.3,4.8,347.9,0.44,18.9,26.0,"15:02:48",1
"22/08/28","15:20",0.0,29.3,55.0,1006.0,353.1,2.2,4.5,7.3,0.40,19.4,26.0,"15:15:36",1
"22/08/28","15:30",0.0,28.8,54.0,1006.2,348.5,2.6,5.6,311.4,0.38,18.6,26.3,"15:25:36",1
"22/08/28","15:40",0.0,28.2,55.7,1005.5,340.7,2.6,5.1,2.6,0.27,18.5,26.2,"15:37:36",1
"22/08/28","15:50",0.0,28.2,57.1,1005.5,339.6,2.8,6.2,6.7,0.31,18.9,26.1,"15:43:28",1
"22/08/28","16:00",0.0,28.0,55.6,1005.0,2.2,2.6,5.5,354.7,0.27,18.3,26.3,"15:52:24",1
"22/08/28","16:10",0.0,28.1,56.9,1005.0,7.0,2.6,6.5,30.7,0.25,18.8,26.3,"16:03:28",1
"22/08/28","16:20",0.0,27.5,57.8,1004.8,337.8,2.6,5.5,318.1,0.20,18.5,26.1,"16:16:48",1
"22/08/28","16:30",0.0,27.6,57.8,1004.8,337.9,3.0,6.2,340.6,0.27,18.6,26.4,"16:22:48",1
"22/08/28","16:40",0.0,27.7,55.0,1004.8,356.3,2.8,7.0,35.3,0.24,17.9,26.2,"16:37:52",1
"22/08/28","16:50",0.0,27.8,56.4,1004.5,355.0,2.6,5.6,9.6,0.21,18.4,26.2,"16:42:32",1
"22/08/28","17:00",0.0,27.9,57.7,1005.2,346.2,2.2,6.4,9.7,0.18,18.8,26.3,"16:54:16",1
"22/08/28","17:10",0.0,27.6,54.1,1005.0,345.2,2.3,8.1,347.6,0.16,17.5,26.2,"17:08:40",1
"22/08/28","17:20",0.0,27.0,56.0,1005.5,343.0,2.8,5.4,355.4,0.13,17.5,26.2,"17:10:24",1
"22/08/28","17:30",0.0,26.8,55.3,1005.7,338.6,2.6,5.1,335.9,0.11,17.1,26.3,"17:20:56",1
"22/08/28","17:40",0.0,26.6,56.9,1005.7,344.5,3.1,6.3,335.3,0.09,17.4,26.5,"17:36:56",1
"22/08/28","17:50",0.0,26.2,58.2,1006.0,334.3,3.4,6.7,310.6,0.06,17.4,26.2,"17:40:32",1
"22/08/28","18:00",0.0,26.0,59.0,1006.2,343.3,3.1,7.9,349.7,0.05,17.4,26.4,"17:58:48",1
"22/08/28","18:10",0.0,25.6,60.6,1006.0,339.7,2.8,5.1,350.5,0.03,17.5,26.0,"18:03:36",1
"22/08/28","18:20",0.0,25.2,61.8,1006.2,342.1,2.7,5.6,2.0,0.01,17.4,26.2,"18:12:48",1
"22/08/28","18:30",0.0,24.6,63.6,1006.7,344.6,1.8,3.9,351.5,0.00,17.3,26.1,"18:24:08",1
"22/08/28","18:40",0.0,24.2,64.6,1006.9,343.0,1.6,3.7,351.2,0.00,17.2,26.2,"18:38:56",1
"22/08/28","18:50",0.0,23.7,66.2,1007.1,342.0,2.3,5.1,323.7,0.00,17.1,26.1,"18:41:36",1
"22/08/28","19:00",0.0,23.5,67.0,1007.4,335.9,2.6,4.8,338.4,0.00,17.1,26.1,"18:54:00",1
"22/08/28","19:10",0.0,23.4,67.7,1007.6,338.0,2.8,5.6,338.0,0.00,17.1,26.1,"19:08:16",1
"22/08/28","19:20",0.0,23.2,68.3,1007.6,335.0,2.7,5.7,332.8,0.00,17.1,26.1,"19:16:48",1
"22/08/28","19:30",0.0,23.0,69.2,1007.8,332.2,2.0,4.4,318.2,0.00,17.1,26.1,"19:25:36",1
"22/08/28","19:40",0.0,22.8,69.8,1008.1,329.1,2.2,5.0,326.6,0.00,17.0,25.9,"19:32:32",1
"22/08/28","19:50",0.0,22.6,70.5,1008.3,335.1,2.5,5.4,337.0,0.00,17.0,26.0,"19:43:52",1
"22/08/28","20:00",0.0,22.6,71.1,1008.6,334.4,2.7,4.2,321.5,0.00,17.1,25.9,"19:55:12",1
"22/08/28","20:10",0.0,22.5,71.8,1008.3,332.5,2.1,4.8,340.2,0.00,17.2,25.8,"20:00:16",1
"22/08/28","20:20",0.0,22.5,72.4,1008.8,330.4,2.5,4.7,341.4,0.00,17.3,26.0,"20:11:04",1
"22/08/28","20:30",0.0,22.4,73.1,1009.3,332.8,2.6,5.1,342.7,0.00,17.4,25.8,"20:28:08",1
"22/08/28","20:40",0.0,22.3,73.7,1009.0,331.4,2.3,5.5,332.2,0.00,17.4,25.7,"20:35:28",1
"22/08/28","20:50",0.0,22.3,74.0,1009.3,330.0,2.5,4.8,12.2,0.00,17.5,25.7,"20:41:28",1
"22/08/28","21:00",0.0,22.4,74.3,1009.5,324.5,2.6,6.3,326.1,0.00,17.6,25.7,"20:53:44",1
"22/08/28","21:10",0.0,22.3,74.7,1009.7,316.6,1.6,3.2,349.4,0.00,17.6,25.6,"21:00:08",1
"22/08/28","21:20",0.0,22.1,75.2,1009.7,322.9,2.0,4.7,341.8,0.00,17.5,25.6,"21:12:08",1
"22/08/28","21:30",0.0,22.0,75.7,1009.7,320.3,1.5,2.4,340.7,0.00,17.6,25.4,"21:20:08",1
"22/08/28","21:40",0.0,22.1,76.1,1009.3,326.7,2.0,4.1,333.6,0.00,17.7,25.6,"21:31:28",1
"22/08/28","21:50",0.0,21.8,76.4,1009.7,319.2,1.1,2.7,344.1,0.00,17.5,25.4,"21:45:04",1
"22/08/28","22:00",0.0,21.3,77.5,1010.0,281.7,0.7,1.4,335.3,0.00,17.2,25.5,"21:51:12",1
"22/08/28","22:10",0.0,20.9,79.1,1009.5,334.3,1.1,1.9,333.0,0.00,17.2,25.3,"22:04:48",1
"22/08/28","22:20",0.0,20.4,80.5,1009.7,324.2,1.0,1.2,332.2,0.00,17.0,25.5,"22:10:08",1
"22/08/28","22:30",0.0,19.9,81.5,1010.2,313.7,0.8,1.3,344.9,0.00,16.7,25.4,"22:25:20",1
"22/08/28","22:40",0.0,19.8,83.2,1010.0,327.6,1.2,1.9,342.9,0.00,16.9,25.3,"22:37:12",1
"22/08/28","22:50",0.0,19.5,84.9,1009.5,329.0,1.1,1.6,320.7,0.00,16.9,25.3,"22:42:24",1
"22/08/28","23:00",0.0,19.5,86.1,1009.7,334.5,1.2,1.9,347.8,0.00,17.2,25.2,"22:50:48",1
"22/08/28","23:10",0.0,19.4,86.9,1009.7,333.2,1.1,1.8,347.5,0.00,17.2,25.1,"23:03:20",1
"22/08/28","23:20",0.0,19.1,87.4,1010.0,311.8,0.7,1.4,327.3,0.00,17.0,25.2,"23:10:16",1
"22/08/28","23:30",0.0,19.0,88.0,1010.0,301.6,0.6,1.6,304.4,0.00,17.0,25.2,"23:26:08",1
"22/08/28","23:40",0.0,19.0,88.3,1010.0,310.5,0.5,1.8,319.3,0.00,17.1,25.1,"23:38:16",1
"22/08/28","23:50",0.0,18.9,88.5,1009.7,314.5,1.0,1.7,317.9,0.00,17.0,25.1,"23:47:36",1
"22/08/28","24:00",0.0,18.5,89.0,1010.0,290.0,0.6,1.2,288.9,0.00,16.7,25.0,"23:59:12",1
